Flag for Switzerland Weather past 2 weeks in Locarno, Ticino, Switzerland

Now
60 °F

Partly sunny.


Feels Like: 60 °F
Forecast: 44 / 58 °F
Wind: 2 mph from Northeast

Location: Locarno-Monti

Current Time: Aug 22, 2014 at 8:55:39 AM

Latest Report: Aug 22, 2014 at 8:00 AM


Visibility: 16 mi

Pressure: 29.98 "Hg

Humidity: 87%

Dew point: 56 °F

Location of LocarnoLocation

Historic Weather in Locarno — Graph

°F

Locarno temperature yesterday

Maximum temperature yesterday: 75 °F (at 3:00 PM)
Minimum temperature yesterday: 56 °F (at 6:00 AM)
Average temperature yesterday: 65 °F

Past Weeks' High & Low Weather Summary

 TemperatureHumidityPressure
High80 °F (Aug 7, 3:00 PM)100% (Aug 9, 7:00 AM)30.12 "Hg (Aug 9, 7:00 AM)
Low56 °F (Aug 17, 7:00 AM)28% (Aug 14, 4:00 PM)29.70 "Hg (Aug 13, 6:00 PM)
Average67 °F75%29.92 "Hg
* Reported Aug 7 7:00 AM — Aug 22 7:00 AM, Locarno, Weather by CustomWeather, © 2014

Note: Actual official high and low records may vary slightly from our data, if they occured in-between our weather recording intervals... More about our weather records

Advertising

Locarno weather history for previous 24 hours

 ConditionsComfort  
Time TempWeatherWind HumidityBarometerVisibility
7:00 AM
Aug 22
59 °FCool.2 mph87%29.98 "HgN/A
6:00 AM60 °FCool.1 mph87%29.97 "HgN/A
5:00 AM59 °FCool.1 mph92%29.98 "HgN/A
4:00 AM61 °FCool.2 mph86%29.98 "HgN/A
3:00 AM61 °FCool.2 mph86%29.99 "HgN/A
2:00 AM63 °FMild.6 mph74%29.98 "HgN/A
1:00 AM64 °FMild.1 mph71%29.98 "HgN/A
12:00 AM64 °FMild.1 mph72%29.98 "HgN/A
11:00 PM
Aug 21
66 °FMild.2 mph66%29.96 "HgN/A
10:00 PM67 °FMild.2 mph63%29.95 "HgN/A
9:00 PM68 °FMild.1 mph61%29.93 "HgN/A
8:00 PM69 °FPassing clouds.3 mph57%29.91 "Hg25 mi
7:00 PM72 °FMild.3 mph43%29.89 "HgN/A
6:00 PM72 °FMild.6 mph44%29.89 "HgN/A
4:00 PM74 °FMild.8 mph45%29.89 "HgN/A
3:00 PM75 °FMild.3 mph35%29.90 "HgN/A
2:00 PM73 °FPassing clouds.5 mph40%29.91 "Hg25 mi
1:00 PM74 °FMild.5 mph51%29.91 "HgN/A
12:00 PM74 °FMild.5 mph42%29.91 "HgN/A
11:00 AM70 °FPassing clouds.3 mph52%29.93 "Hg25 mi
10:00 AM65 °FMild.6 mph50%29.94 "HgN/A
9:00 AM62 °FCool.1 mph65%29.95 "HgN/A
8:00 AM60 °FPassing clouds.3 mph69%29.95 "Hg22 mi
Weather by CustomWeather, © 2014

See weather overviewHow to use our weather pages